Wind_Speed
2 3 3 3 3 3 2 2 2 2 2 3 3 3 3 3 3 2 2 2 1 1 1 1 0 1 1 1 1 2 2 2 2 3 3 2 2 2 2 1 1 2 1 1 1 2 2 3 2
3 3 3 3 3 3 3 3 2 2 2 2 3 3 3 3 3 2 2 2 1 1 1 1 0 1 1 1 1 2 2 2 3 3 3 3 2 1 2 2 2 2 2 1 2 2 2 3 3
3 3 4 4 3 3 3 4 3 3 3 3 3 2 3 3 3 2 2 2 1 1 1 1 1 0 1 1 1 1 1 1 2 2 3 3 2 1 2 2 2 2 2 2 2 2 2 3 3
2 3 3 4 4 4 4 4 4 3 3 3 3 3 2 2 3 3 3 2 2 2 2 2 2 1 1 0 0 1 1 1 1 1 2 1 2 2 2 2 2 2 2 2 2 2 2 3 3
2 3 3 3 3 3 4 5 4 3 3 3 2 2 2 2 3 3 3 3 3 3 3 2 2 3 2 2 2 2 2 2 2 2 2 2 2 3 3 3 2 3 4 3 3 2 3 3 4
2 2 2 2 3 3 3 4 4 3 3 3 2 2 2 2 3 3 4 4 4 4 4 3 3 3 3 3 3 3 3 3 3 3 3 3 3 3 3 3 3 4 4 5 4 4 5 5 5
3 2 2 2 2 3 3 3 4 4 3 3 3 2 3 3 3 4 4 4 4 5 5 4 4 4 4 4 4 4 4 4 5 5 4 5 4 4 4 4 4 4 6 6 6 6 6 6 6
3 3 2 2 2 3 3 4 4 4 3 3 3 3 3 4 4 4 4 5 5 5 5 5 5 5 5 5 5 5 5 5 6 6 6 6 6 5 5 5 6 6 6 7 6 6 7 7 8
3 3 3 3 3 3 3 4 4 4 4 4 4 4 4 4 4 4 5 5 5 5 5 5 6 6 6 6 6 6 6 6 7 7 7 7 7 6 6 7 7 8 8 8 8 8 8 9 9
4 4 4 3 3 4 4 4 4 4 4 5 5 5 5 5 5 5 5 6 5 6 6 6 7 7 7 7 7 7 7 7 7 7 7 7 7 7 8 8 9 9 9 9 9 9 9 10 10
4 4 4 4 4 4 5 5 5 5 5 5 5 6 6 6 5 6 6 6 6 6 7 7 7 7 8 8 8 9 9 9 9 8 8 8 9 9 9 10 10 10 10 11 10 10 10 10 10
5 4 4 4 4 5 5 6 6 6 6 6 6 6 6 6 6 6 6 7 7 7 8 8 8 8 9 9 9 10 10 10 10 10 10 10 10 10 10 11 11 11 11 11 11 11 10 11 10
6 6 6 5 5 5 6 6 6 6 7 7 7 6 6 6 7 7 7 8 8 8 8 8 9 9 9 9 9 10 10 10 10 11 11 11 10 11 11 12 12 12 12 12 12 13 12 11 11
7 7 7 7 6 6 6 6 6 7 7 7 6 6 7 7 7 7 8 8 8 8 8 9 9 9 9 9 9 9 10 11 11 11 11 11 11 11 12 12 12 12 12 13 13 13 12 12 11
8 8 8 8 8 7 7 7 7 7 8 8 8 8 8 8 8 8 8 9 9 9 9 9 10 10 11 10 10 10 10 11 11 11 12 12 12 12 12 12 13 13 13 13 13 13 12 12 12
9 9 9 9 9 9 9 8 8 8 8 9 9 9 9 9 9 9 9 9 9 10 10 10 10 11 11 12 12 11 11 11 12 12 12 12 12 12 13 13 13 13 13 13 13 13 13 12 12
11 11 10 10 10 10 10 10 9 9 10 9 10 10 10 9 9 9 9 9 10 10 10 10 11 11 11 12 12 13 12 12 12 12 13 13 13 13 13 14 14 13 13 13 13 13 13 13 13
12 12 11 12 12 12 12 11 10 11 11 11 11 11 11 10 10 10 10 10 10 11 11 11 11 11 12 12 13 13 13 13 13 13 13 13 13 13 13 13 13 14 14 13 13 13 13 13 13
13 13 13 13 13 14 13 12 11 12 12 12 12 13 12 11 11 11 11 11 11 11 12 12 12 12 12 12 13 13 13 13 13 12 12 12 13 13 13 12 13 13 13 13 13 13 13 13 13
13 14 14 14 14 14 14 14 13 13 13 12 13 13 13 13 12 12 12 12 12 13 13 13 12 13 13 13 13 13 13 13 13 13 13 13 13 13 13 12 13 13 14 14 14 13 14 14 14
14 14 14 15 15 15 15 15 15 14 14 13 14 14 14 13 13 13 14 14 14 15 14 14 14 14 14 14 14 13 14 14 14 15 15 14 14 14 13 13 14 14 14 15 15 15 15 15 15
14 14 15 15 15 15 16 15 14 15 15 15 15 15 15 15 15 15 15 15 15 15 15 15 15 16 16 16 15 15 15 16 16 16 15 15 14 15 15 14 14 15 15 15 16 16 16 17 17
14 14 15 16 17 17 16 17 14 15 16 16 17 17 16 16 16 16 17 17 17 17 17 17 17 18 18 18 17 17 17 17 17 17 17 16 16 16 16 16 16 16 16 16 16 16 17 17 18
15 16 16 17 18 17 16 17 15 14 15 17 18 17 17 17 17 18 18 18 19 19 19 19 19 19 19 19 19 19 19 19 19 19 18 18 18 18 17 17 17 17 17 18 18 17 17 17 18
16 16 17 17 18 18 16 17 16 15 15 16 17 18 18 18 18 19 19 20 20 20 20 20 20 20 20 20 20 20 20 20 20 20 20 19 19 19 19 19 19 19 19 18 19 19 18 18 18
16 17 18 19 18 18 17 17 17 16 16 16 17 18 18 19 19 20 20 21 21 21 21 21 21 21 21 22 22 22 22 22 21 22 21 21 21 20 20 20 20 20 20 20 20 20 20 19 19
16 17 18 19 19 19 18 17 17 18 18 18 18 18 19 20 20 20 21 21 21 21 21 21 22 22 23 23 24 24 24 23 23 22 23 23 23 22 22 21 21 21 22 22 22 23 22 21 21
17 17 18 19 20 20 20 18 18 18 19 19 19 18 19 20 20 20 21 21 21 21 21 22 23 23 24 24 24 24 24 24 24 24 24 25 25 24 23 23 23 24 24 24 24 24 24 23 22
18 19 19 20 21 21 22 20 19 19 19 19 19 20 20 21 21 20 21 21 21 21 22 23 23 24 25 26 26 26 26 26 26 25 26 26 27 26 25 25 26 26 25 25 25 25 26 25 24
19 19 20 22 22 22 23 23 22 21 21 20 20 21 21 21 22 21 21 22 22 23 23 24 24 25 26 26 27 27 27 28 28 27 27 27 28 28 27 27 27 28 28 28 27 27 27 26 26
Wind_Direction
240 228 229 225 218 207 201 199 201 180 179 188 187 184 185 186 191 204 184 179 188 213 229 169 102 61 61 59 56 64 69 46 28 13 14 10 357 1 6 354 357 356 350 308 282 313 300 278 274
247 236 235 231 226 223 218 215 202 196 182 189 187 185 192 186 192 189 189 192 194 217 208 192 98 68 71 83 72 74 72 40 27 19 25 20 22 8 2 5 358 357 357 346 302 307 303 286 290
242 237 234 229 230 227 223 225 223 211 193 191 188 188 191 183 190 203 209 215 222 226 228 219 207 162 116 87 85 47 49 29 16 16 25 17 4 342 331 324 326 336 348 338 317 303 298 293 288
239 234 236 234 237 234 226 225 224 223 208 192 192 186 191 199 210 216 222 232 241 242 237 232 233 245 245 277 318 309 316 336 330 345 357 342 317 322 324 306 303 317 325 319 311 307 302 291 284
255 241 240 242 241 233 222 218 216 219 207 205 205 199 206 218 221 224 234 246 251 251 250 252 251 259 264 275 293 291 298 300 306 289 288 294 292 310 325 320 290 295 295 301 304 309 298 291 287
283 261 242 247 238 230 222 216 213 208 205 209 208 217 236 239 230 233 243 250 258 260 261 266 270 269 275 281 284 285 286 289 277 270 285 289 296 306 314 313 294 295 294 295 291 288 287 287 286
292 291 274 251 232 225 219 215 211 205 206 221 220 221 239 245 243 243 243 247 254 258 259 263 268 270 272 275 280 283 279 275 271 274 283 287 290 288 288 290 292 295 294 293 289 283 282 281 286
286 286 279 254 231 236 220 220 215 213 217 229 230 225 235 245 244 248 249 248 251 258 262 265 270 273 272 273 277 280 278 278 274 274 278 280 282 279 272 275 284 287 289 288 285 281 284 288 289
277 276 271 259 247 253 241 232 223 215 222 233 238 234 236 241 245 251 252 255 257 261 263 268 274 276 277 278 279 279 280 281 279 276 276 278 278 273 267 271 278 285 286 286 286 281 284 287 288
271 275 273 264 255 256 255 248 237 230 234 239 237 234 239 241 247 253 255 260 263 264 266 272 275 277 280 281 281 279 279 280 279 277 275 275 276 274 272 273 276 281 281 282 283 281 282 286 284
271 276 275 267 259 255 258 257 251 251 250 247 247 245 244 243 245 250 254 259 262 265 270 275 277 279 282 282 280 277 276 278 278 277 275 275 272 273 275 276 278 279 280 280 281 284 283 286 286
263 265 268 270 263 259 262 261 260 258 257 258 261 256 256 255 253 254 258 261 262 265 271 277 276 276 278 280 280 278 277 278 278 276 274 274 273 272 275 276 277 278 280 281 282 283 283 285 284
264 263 266 269 270 270 269 269 268 268 267 266 267 268 263 261 257 255 256 260 263 267 272 274 276 275 274 274 276 278 278 278 278 277 275 274 274 274 275 278 276 277 278 279 281 279 279 281 280
267 268 268 269 274 275 274 275 276 275 271 267 267 269 269 265 262 262 262 263 265 268 270 273 274 271 271 274 276 278 279 279 278 276 276 275 274 275 277 278 277 277 277 277 280 279 278 277 276
264 267 271 271 272 274 274 272 272 272 269 266 265 266 265 265 267 271 274 275 274 271 271 274 275 274 274 276 278 282 281 280 278 276 276 276 276 277 279 279 278 278 278 277 277 277 275 275 274
263 264 268 270 270 270 269 268 269 267 268 267 265 264 261 264 269 273 276 278 277 276 276 277 278 278 276 276 278 281 281 280 279 277 275 275 276 277 278 279 278 279 279 276 274 274 275 275 274
264 266 269 268 268 267 267 268 269 268 269 269 266 264 265 267 269 272 275 276 277 278 280 280 280 281 280 279 280 278 277 280 280 280 278 276 278 281 280 278 277 277 277 275 273 274 272 273 273
267 268 266 266 265 264 264 268 269 270 271 269 267 265 265 265 265 269 272 276 277 281 284 284 282 281 281 279 278 276 277 278 280 281 279 279 280 281 283 282 280 278 276 276 275 273 272 272 272
266 265 265 265 265 264 265 268 269 272 272 269 266 266 266 268 269 269 271 274 277 280 282 282 283 283 282 281 279 278 277 276 276 278 277 278 278 280 285 284 284 281 279 280 280 276 274 273 274
265 266 264 264 267 269 271 272 270 271 272 270 265 265 268 268 270 271 271 274 274 277 278 280 281 285 286 285 282 280 279 279 278 277 275 276 277 280 282 283 282 283 282 281 281 278 273 273 273
268 267 266 267 268 270 271 273 272 269 269 268 265 264 266 267 268 270 271 273 276 278 279 280 280 282 284 285 283 280 280 279 278 278 275 274 277 279 282 282 281 281 281 280 281 280 277 272 271
270 268 267 267 267 269 272 275 273 270 268 268 267 264 264 266 267 267 269 272 274 277 278 278 278 279 281 283 282 278 278 278 278 276 275 274 275 277 279 280 282 282 283 280 279 279 277 273 270
271 269 268 267 267 268 270 275 275 273 271 269 267 265 266 267 267 268 271 272 273 274 276 277 277 278 278 278 279 280 278 277 277 276 274 275 276 276 277 280 281 281 283 282 280 278 276 274 272
274 273 271 270 268 269 271 274 275 274 272 268 265 264 266 267 267 270 271 272 274 273 273 274 275 277 277 278 279 280 279 277 277 275 273 274 276 277 277 278 279 279 280 280 279 278 277 275 274
274 274 274 273 271 273 273 274 276 275 273 269 266 265 265 265 266 269 271 272 274 274 273 273 274 275 276 277 278 278 278 278 277 275 274 273 274 275 275 275 277 277 278 277 278 276 277 276 274
275 276 276 278 277 275 274 276 279 279 277 274 270 268 270 271 270 270 272 274 274 272 272 272 272 272 272 274 275 276 278 279 278 277 276 274 274 275 274 274 275 275 276 276 277 275 275 275 275
277 276 278 278 279 278 277 278 280 278 278 277 274 272 271 272 271 272 273 275 275 273 272 273 274 272 271 272 273 274 275 277 278 279 277 274 273 273 272 273 274 275 275 276 276 275 274 273 273
276 277 277 277 280 280 279 280 282 282 280 278 276 272 270 273 275 275 275 276 277 275 273 274 276 276 275 274 274 274 274 276 276 277 276 274 272 272 270 270 272 273 274 276 276 275 274 271 271
274 275 276 277 279 281 280 279 282 284 284 280 278 274 270 271 274 275 277 278 278 277 277 278 278 278 277 277 276 276 276 276 275 274 275 274 273 271 269 270 271 272 274 274 274 274 274 272 271
276 276 276 276 278 279 280 282 280 281 282 281 276 273 272 271 273 275 276 277 278 280 278 278 279 279 279 278 278 277 276 276 275 274 274 274 272 271 269 270 271 272 273 274 274 273 272 270 270
Height
5859 5859 5860 5862 5863 5863 5863 5864 5864 5864 5865 5865 5866 5867 5867 5868 5869 5872 5870 5869 5870 5870 5870 5870 5870 5870 5870 5870 5870 5870 5870 5870 5870 5870 5870 5869 5869 5869 5870 5870 5870 5870 5870 5870 5870 5870 5870 5870 5870
5859 5860 5861 5862 5862 5862 5864 5864 5864 5865 5865 5866 5866 5867 5867 5867 5868 5869 5869 5869 5870 5870 5870 5870 5870 5870 5870 5870 5870 5870 5870 5870 5870 5870 5870 5869 5869 5869 5869 5870 5870 5870 5870 5870 5869 5869 5869 5870 5870
5859 5860 5862 5862 5862 5863 5864 5864 5864 5865 5865 5866 5866 5867 5867 5867 5868 5868 5869 5869 5869 5870 5870 5870 5870 5870 5870 5870 5870 5870 5870 5870 5870 5869 5869 5869 5869 5869 5869 5869 5870 5870 5870 5869 5869 5869 5869 5869 5869
5859 5860 5861 5861 5862 5863 5863 5864 5864 5865 5865 5866 5866 5866 5867 5867 5868 5868 5868 5869 5869 5869 5869 5869 5870 5869 5869 5869 5869 5869 5869 5869 5869 5869 5869 5869 5869 5869 5869 5869 5869 5869 5869 5869 5869 5868 5868 5869 5869
5859 5860 5861 5860 5861 5862 5863 5863 5864 5865 5865 5865 5866 5866 5866 5867 5867 5868 5868 5868 5869 5869 5869 5869 5869 5869 5869 5869 5869 5869 5869 5869 5869 5868 5868 5868 5868 5868 5868 5868 5868 5868 5868 5868 5868 5868 5868 5868 5868
5859 5859 5860 5860 5861 5862 5862 5863 5864 5864 5865 5865 5866 5866 5866 5867 5867 5867 5868 5868 5868 5868 5868 5868 5868 5868 5868 5868 5868 5868 5868 5868 5868 5867 5867 5868 5867 5867 5867 5867 5867 5867 5867 5867 5867 5867 5867 5867 5867
5859 5859 5859 5860 5861 5861 5862 5862 5863 5864 5864 5865 5865 5865 5866 5866 5866 5867 5867 5867 5867 5868 5868 5868 5868 5868 5868 5868 5867 5867 5867 5867 5867 5867 5867 5867 5867 5866 5867 5866 5866 5866 5866 5866 5866 5866 5866 5865 5865
5858 5860 5859 5860 5860 5861 5861 5862 5862 5863 5864 5864 5865 5865 5865 5866 5866 5866 5866 5866 5867 5867 5867 5867 5867 5867 5867 5867 5866 5866 5866 5866 5866 5865 5865 5865 5865 5865 5865 5865 5865 5865 5865 5864 5864 5864 5864 5864 5863
5858 5860 5859 5859 5860 5860 5860 5861 5862 5862 5863 5863 5864 5864 5864 5864 5865 5865 5865 5865 5866 5866 5866 5866 5866 5866 5866 5865 5865 5865 5865 5865 5864 5864 5864 5864 5864 5864 5864 5864 5864 5863 5863 5863 5862 5862 5862 5862 5862
5858 5858 5859 5859 5859 5859 5859 5860 5861 5862 5862 5863 5863 5863 5863 5863 5864 5864 5864 5864 5864 5864 5864 5864 5864 5864 5864 5864 5864 5863 5863 5863 5863 5862 5862 5862 5862 5862 5862 5862 5862 5861 5861 5861 5860 5860 5860 5859 5859
5857 5857 5858 5858 5858 5859 5859 5859 5860 5861 5861 5862 5862 5862 5862 5862 5862 5862 5863 5863 5863 5863 5863 5863 5862 5862 5862 5862 5862 5861 5861 5861 5861 5860 5860 5860 5860 5860 5860 5860 5859 5859 5859 5859 5858 5858 5857 5857 5857
5856 5856 5856 5857 5857 5858 5858 5858 5859 5860 5860 5860 5860 5860 5860 5861 5861 5861 5861 5861 5861 5861 5861 5861 5861 5861 5860 5860 5860 5859 5859 5859 5858 5858 5858 5858 5857 5857 5857 5857 5857 5857 5856 5856 5856 5855 5855 5855 5854
5855 5855 5855 5856 5856 5856 5857 5857 5858 5858 5859 5859 5859 5858 5859 5859 5859 5859 5859 5859 5859 5859 5859 5859 5859 5858 5858 5858 5857 5857 5857 5856 5856 5855 5855 5855 5855 5855 5854 5854 5854 5854 5853 5853 5853 5853 5852 5852 5852
5854 5854 5854 5855 5855 5855 5855 5856 5856 5857 5857 5857 5857 5857 5857 5857 5857 5857 5857 5857 5857 5857 5857 5856 5856 5856 5856 5855 5855 5855 5854 5854 5853 5853 5853 5852 5852 5852 5852 5851 5851 5851 5850 5850 5850 5850 5849 5849 5849
5852 5853 5853 5853 5853 5853 5854 5854 5855 5855 5855 5855 5855 5856 5856 5855 5855 5855 5855 5855 5855 5855 5854 5854 5854 5854 5853 5853 5852 5852 5851 5851 5851 5850 5850 5850 5849 5849 5849 5848 5848 5848 5847 5847 5847 5846 5846 5846 5846
5851 5851 5852 5852 5852 5852 5853 5853 5853 5853 5853 5853 5853 5853 5853 5853 5853 5853 5853 5853 5852 5852 5852 5852 5851 5851 5851 5850 5850 5849 5849 5848 5848 5847 5847 5847 5846 5846 5846 5845 5845 5845 5844 5844 5844 5843 5843 5843 5843
5848 5849 5849 5850 5849 5850 5850 5850 5851 5850 5850 5850 5850 5850 5851 5851 5851 5851 5851 5850 5850 5849 5849 5849 5848 5848 5847 5847 5846 5846 5846 5845 5845 5844 5844 5843 5843 5842 5842 5842 5842 5841 5841 5841 5841 5840 5840 5840 5840
5846 5846 5847 5847 5847 5847 5847 5848 5848 5848 5848 5848 5848 5848 5848 5848 5848 5848 5848 5848 5847 5847 5846 5846 5845 5845 5844 5844 5843 5843 5842 5842 5841 5841 5840 5840 5839 5839 5839 5838 5838 5838 5838 5837 5837 5837 5837 5837 5836
5843 5843 5844 5844 5844 5844 5844 5845 5845 5845 5845 5845 5845 5845 5845 5845 5845 5845 5845 5845 5844 5844 5843 5843 5842 5842 5841 5841 5840 5840 5839 5839 5838 5837 5837 5837 5836 5835 5835 5835 5834 5834 5834 5834 5833 5833 5833 5833 5833
5839 5840 5840 5841 5840 5840 5841 5841 5841 5841 5841 5842 5842 5842 5842 5842 5842 5842 5842 5841 5841 5841 5840 5840 5839 5839 5838 5837 5837 5836 5836 5835 5835 5834 5834 5833 5833 5832 5832 5831 5831 5831 5830 5830 5830 5829 5829 5829 5829
5836 5836 5836 5837 5836 5836 5837 5838 5838 5838 5837 5838 5838 5838 5838 5838 5838 5838 5838 5838 5837 5837 5837 5836 5836 5835 5835 5834 5833 5833 5832 5832 5831 5831 5831 5830 5830 5829 5828 5828 5827 5827 5827 5826 5826 5825 5825 5825 5825
5832 5832 5832 5832 5832 5832 5833 5833 5834 5833 5833 5833 5834 5834 5834 5834 5834 5834 5834 5833 5833 5833 5832 5832 5832 5831 5831 5830 5830 5829 5829 5828 5828 5827 5827 5826 5826 5826 5825 5824 5824 5823 5823 5822 5822 5821 5821 5821 5821
5828 5828 5828 5828 5828 5828 5828 5828 5829 5828 5828 5829 5829 5829 5829 5830 5830 5829 5829 5829 5828 5828 5828 5827 5827 5827 5826 5825 5825 5825 5824 5824 5823 5823 5822 5822 5822 5821 5821 5820 5820 5819 5819 5818 5817 5817 5817 5816 5816
5824 5824 5824 5823 5823 5824 5825 5824 5824 5825 5824 5824 5824 5824 5825 5825 5825 5824 5824 5824 5823 5823 5823 5822 5822 5822 5821 5821 5820 5820 5819 5819 5818 5818 5818 5817 5817 5817 5816 5816 5815 5815 5814 5814 5813 5812 5812 5812 5812
5821 5821 5820 5819 5819 5820 5820 5819 5821 5821 5820 5820 5820 5820 5820 5820 5820 5819 5819 5818 5818 5817 5817 5817 5817 5816 5816 5815 5815 5815 5814 5814 5813 5813 5812 5812 5812 5812 5811 5811 5810 5810 5809 5809 5808 5808 5807 5807 5807
5817 5817 5817 5816 5815 5815 5815 5815 5817 5816 5815 5815 5815 5815 5815 5815 5814 5814 5813 5813 5812 5812 5811 5811 5811 5811 5810 5810 5809 5809 5809 5808 5808 5807 5806 5806 5806 5806 5805 5805 5805 5804 5804 5804 5803 5803 5802 5802 5801
5813 5813 5813 5812 5810 5810 5811 5812 5812 5811 5811 5810 5810 5810 5809 5809 5809 5808 5808 5807 5806 5806 5805 5805 5805 5804 5804 5803 5803 5803 5802 5802 5801 5801 5800 5800 5800 5799 5799 5799 5799 5798 5798 5798 5797 5797 5797 5796 5796
5810 5809 5808 5807 5806 5805 5806 5807 5807 5806 5806 5805 5805 5805 5804 5804 5803 5802 5802 5801 5800 5800 5799 5798 5798 5798 5797 5797 5796 5795 5795 5795 5795 5794 5794 5793 5793 5793 5792 5792 5792 5792 5792 5791 5791 5791 5790 5790 5790
5805 5805 5803 5802 5802 5801 5801 5804 5802 5801 5800 5800 5799 5799 5799 5798 5798 5797 5796 5795 5794 5793 5793 5792 5791 5791 5790 5789 5788 5788 5788 5787 5787 5787 5787 5786 5786 5785 5785 5785 5785 5784 5784 5784 5784 5784 5783 5783 5783
5800 5800 5799 5798 5797 5796 5796 5799 5796 5795 5794 5793 5793 5793 5792 5792 5792 5791 5790 5790 5788 5787 5786 5785 5784 5784 5783 5782 5781 5780 5780 5779 5779 5779 5779 5778 5778 5778 5778 5777 5777 5777 5777 5776 5776 5776 5776 5776 5775